This demonstration page uses our WeatherBlox Daily Observations layout. Learn more.

Left ArrowRight Arrow

Hourly Observations for November 3, 2016

Temp ( °F °C ) Dew Point ( °F °C ) Humidity (%) Winds ( mph kmh ) Pressure ( in mb ) Visibility ( mi km ) Precip ( " mm )
12:51 am 00:51 Mostly Cloudy 57 13.9 55 12.8 93 93 SE 7 11 30.04 1017 10 16.0934 N/A
1:51 am 01:51 Mostly Cloudy 58 14.4 54 12.2 87 87 SSW 6 9 30.02 1017 10 16.0934 N/A
2:51 am 02:51 Cloudy 57 13.9 54 12.2 90 90 NNE 5 7 30.02 1017 10 16.0934 N/A
3:51 am 03:51 Cloudy 59 15 54 12.2 83 83 N N/A 30.01 1016 10 16.0934 N/A
4:51 am 04:51 Cloudy 58 14.4 55 12.8 90 90 N N/A 30.02 1017 10 16.0934 N/A
5:40 am 05:40 Cloudy with Nearby Thunderstorms 58 14.4 55 12.8 90 90 SE 3 6 30.09 1019 10 16.0934 N/A
5:51 am 05:51 Mostly Cloudy 57 13.9 54 12.2 90 90 ESE 6 9 30.05 1018 10 16.0934 N/A
6:51 am 06:51 Cloudy 59 15 51 10.6 75 75 SE 9 15 30.06 1018 10 16.0934 N/A
7:38 am 07:38 Cloudy with Nearby Thunderstorms 59 15 52 11.1 78 78 SE 10 17 30.12 1020 10 16.0934 N/A
7:51 am 07:51 Cloudy 59 15 52 11.1 78 78 ESE 7 11 30.09 1019 10 16.0934 N/A
8:51 am 08:51 Cloudy 60 15.6 53 11.7 78 78 ESE 6 9 30.11 1020 10 16.0934 N/A
9:51 am 09:51 Cloudy 61 16.1 53 11.7 75 75 S 9 15 30.12 1020 10 16.0934 N/A
10:51 am 10:51 Cloudy 64 17.8 51 10.6 63 63 SE 6 9 30.11 1020 10 16.0934 N/A
11:51 am 11:51 Mostly Sunny 69 20.6 51 10.6 53 53 ESE 7 11 30.06 1018 10 16.0934 N/A
12:51 pm 12:51 Sunny 73 22.8 50 10 44 44 SE 9 15 30.02 1017 10 16.0934 N/A
1:51 pm 13:51 Mostly Cloudy 75 23.9 51 10.6 43 43 SE 14 22 29.99 1016 10 16.0934 N/A
2:51 pm 14:51 Mostly Cloudy 77 25 49 9.4 37 37 ESE 20 31 29.97 1015 10 16.0934 N/A
3:51 pm 15:51 Mostly Sunny 77 25 48 8.9 36 36 SSE 22 35 29.96 1015 10 16.0934 N/A
4:51 pm 16:51 Mostly Cloudy 75 23.9 49 9.4 40 40 ESE 23 37 29.94 1014 10 16.0934 N/A
5:14 pm 17:14 Cloudy with Nearby Thunderstorms 74 23.3 41 5 31 31 SE 20 31 29.88 1012 10 16.0934 N/A
5:25 pm 17:25 Cloudy with Nearby Thunderstorms 66 18.9 51 10.6 59 59 SSW 9 15 29.97 1015 1.75 2.816345 0.03 0.762
5:33 pm 17:33 Cloudy with Light Thunderstorms 63 17.2 49 9.4 60 60 S 9 15 30 1016 2 3.21868 0.19 4.826
5:51 pm 17:51 Mostly Cloudy with Light Thunderstorms 59 15 55 12.8 87 87 NNE 8 13 29.99 1016 7 11.26538 0.34 8.636
6:00 pm 18:00 Mostly Cloudy 61 16.1 55 12.8 81 81 NNE 14 22 29.97 1015 10 16.0934 N/A
6:07 pm 18:07 Mostly Cloudy with Nearby Thunderstorms 61 16.1 57 13.9 87 87 NE 10 17 30 1016 10 16.0934 N/A
6:22 pm 18:22 Mostly Cloudy with Light Rain 63 17.2 55 12.8 76 76 E 5 7 30 1016 10 16.0934 N/A
6:40 pm 18:40 Cloudy with Nearby Thunderstorms 63 17.2 57 13.9 81 81 SE 10 17 30 1016 10 16.0934 N/A
6:51 pm 18:51 Cloudy with Nearby Thunderstorms 63 17.2 57 13.9 81 81 SE 8 13 30.02 1017 10 16.0934 N/A
7:38 pm 19:38 Cloudy with Light Thunderstorms 61 16.1 56 13.3 84 84 NNE 6 9 30.03 1017 10 16.0934 0.01 0.254
7:42 pm 19:42 Cloudy with Light Thunderstorms 61 16.1 56 13.3 84 84 NNE 5 7 30.03 1017 1.75 2.816345 0.01 0.254
7:51 pm 19:51 Cloudy with Thunderstorms 59 15 56 13.3 90 90 ENE 5 7 30.04 1017 2 3.21868 0.15 3.81
7:59 pm 19:59 Cloudy with Heavy Thunderstorms 59 15 56 13.3 90 90 N N/A 30.06 1018 3 4.82802 0.05 1.27
8:03 pm 20:03 Cloudy with Thunderstorms 59 15 57 13.9 93 93 VRB 3 6 30.06 1018 1.75 2.816345 0.06 1.524
8:13 pm 20:13 Cloudy with Light Thunderstorms 59 15 57 13.9 93 93 ENE 8 13 30.06 1018 4 6.43736 0.2 5.08
8:32 pm 20:32 Partly Cloudy with Nearby Thunderstorms 60 15.6 57 13.9 90 90 E 12 19 30.03 1017 10 16.0934 0.2 5.08
8:51 pm 20:51 Mostly Cloudy with Nearby Thunderstorms 60 15.6 57 13.9 90 90 VRB 3 6 30.04 1017 10 16.0934 0.21 5.334
9:05 pm 21:05 Mostly Cloudy 62 16.7 54 12.2 75 75 ESE 12 19 30.03 1017 10 16.0934 N/A
9:51 pm 21:51 Mostly Cloudy 59 15 56 13.3 90 90 SE 8 13 30.03 1017 10 16.0934 N/A
10:46 pm 22:46 Mostly Cloudy with Nearby Thunderstorms 61 16 57 14 88 88 E 8 13 30.03 1017 10 16.0934 N/A
10:51 pm 22:51 Mostly Cloudy with Nearby Thunderstorms 60 15.6 57 13.9 90 90 E 8 13 30.02 1017 10 16.0934 N/A
11:01 pm 23:01 Mostly Cloudy 60 15.6 57 13.9 90 90 E 7 11 30.03 1017 10 16.0934 N/A
11:33 pm 23:33 Mostly Cloudy with Nearby Thunderstorms 61 16.1 57 13.9 87 87 E 6 9 30.03 1017 10 16.0934 N/A
11:48 pm 23:48 Mostly Cloudy 61 16 55 13 83 83 ESE 8 13 30.03 1017 10 16.0934 N/A
11:51 pm 23:51 Mostly Cloudy 62 16.7 56 13.3 80 80 E 7 11 30.01 1016 10 16.0934 N/A

Powered by AerisWeather